Location: San Martino di Castrozza
(46.2667°N, 11.8000°E)
Time: 03:13:53
(UTC+00:00)

DELTA 2 DEB (DPAF) - Pass Details

Date: 23 April 2021
Orbit: 641 x 644 km, 98.4° (Epoch: 15 May)

Event Time Altitude Azimuth Distance (km) Brightness Sun altitude
Exits shadow 01:57:24 49° 246° (WSW) 836 4.3 -20.3°
Maximum altitude 01:57:42 50° 260° (W) 827 4.3 -20.3°
Drops below altitude 10° 02:02:02 10° 336° (NNW) 2,050 7.0 -19.8°
Sets 02:04:19 0° 342° (NNW) 2,965 7.9 -19.5°
